Voltar ao catálogo

THOR ABLESTAR DEB

AtivoLEO
NORAD 6748·DEBRIS·🇺🇸 United States

Lançado Jun 29, 1961 de Cape Canaveral Space Force Station

Loading…

Próximas Passagens (próximas 24 horas)

TLE

AtualizadoSource: Space-Track

Época: Sep 14, 2026, 12:43 UTC

1 06748U 61015KN  26257.53008325  .00003460  00000-0  11753-2 0  9998
2 06748  66.8913  84.5240 0064455 225.5484 134.0337 14.36580985303496

Acompanhe THOR ABLESTAR DEB em tempo real com AllMySat

Download on the App Store